Home > Weather > Tucumán > Past weeks

Flag for Argentina Weather for the Past 2 Weeks in Tucumán, Tucumán, Argentina

Now
84 °F

Scattered clouds.


Feels Like: 90 °F
Forecast: 69 / 86 °F
Wind: 7 mph from North

Location: Tucuman Aerodrome

Current Time: Feb 10, 2016 at 12:57:28 PM

Latest Report: Feb 10, 2016 at 12:00 PM


Visibility: N/A

Pressure: 29.98 "Hg

Humidity: 66%

Dew point: 72 °F

Location of TucumánLocation

Historic Weather in Tucumán — Graph

°F

Tucumán Temperature Yesterday

Maximum temperature yesterday: 82 °F (at 5:00 PM)
Minimum temperature yesterday: 73 °F (at 1:00 AM)
Average temperature yesterday: 76 °F

High & Low Weather Summary for the Past Weeks

 TemperatureHumidityPressure
High95 °F (Jan 29, 4:00 PM)100% (Jan 29, 11:00 PM)30.18 "Hg (Jan 29, 11:00 PM)
Low66 °F (Jan 27, 4:00 AM)46% (Jan 27, 6:00 PM)29.62 "Hg (Feb 7, 6:00 PM)
Average77 °F80%29.92 "Hg
* Reported Jan 26 11:00 AM — Feb 10 11:00 AM, Tucumán, Weather by CustomWeather, © 2016

Note: Actual official high and low records may vary slightly from our data, if they occured in-between our weather recording intervals... More about our weather records

Advertising

Tucumán Weather History for the Previous 24 Hours

 ConditionsComfort  
Time TempWeatherWind HumidityBarometerVisibility
11:00 AM
Wed, Feb 10
82 °FScattered clouds.No wind70%30.01 "HgN/A
10:00 AM79 °FScattered clouds.No wind84%30.01 "HgN/A
9:00 AM75 °FScattered clouds.No wind89%29.98 "HgN/A
8:00 AM72 °FSunny.2 mph94%30.01 "Hg10 mi
7:00 AM70 °FPassing clouds.5 mph94%29.98 "HgN/A
6:00 AM70 °FSunny.5 mph94%29.95 "Hg10 mi
5:00 AM70 °FClear.5 mph94%29.95 "Hg10 mi
4:00 AM70 °FClear.No wind94%29.98 "Hg10 mi
3:00 AM72 °FClear.5 mph88%30.01 "Hg10 mi
2:00 AM72 °FPassing clouds.7 mph88%30.04 "HgN/A
1:00 AM72 °FPassing clouds.5 mph88%30.04 "HgN/A
12:00 AM73 °FPassing clouds.5 mph89%30.04 "HgN/A
11:00 PM
Tue, Feb 9
75 °FClear.5 mph89%30.01 "Hg10 mi
10:00 PM75 °FClear.5 mph89%29.98 "Hg10 mi
9:00 PM77 °FClear.No wind83%29.95 "Hg10 mi
8:00 PM79 °FPassing clouds.5 mph79%29.92 "HgN/A
7:00 PM81 °FScattered clouds.No wind74%29.92 "HgN/A
6:00 PM81 °FScattered clouds.5 mph74%29.95 "HgN/A
5:00 PM82 °FBroken clouds.5 mph70%29.95 "HgN/A
4:00 PM81 °FPartly sunny.12 mph74%30.01 "HgN/A
3:00 PM81 °FPartly sunny.10 mph79%30.01 "HgN/A
2:00 PM81 °FPartly sunny.9 mph79%30.04 "Hg5 mi
1:00 PM75 °FMostly cloudy.8 mph94%30.04 "Hg4 mi
12:00 PM77 °FLight rain. Mostly cloudy.5 mph89%30.07 "Hg4 mi
Weather by CustomWeather, © 2016

See weather overviewHow to use our weather pages